Hourly Data Report for January 15, 2013

BAGOTVILLE A
QUEBEC

48°20'00.000" N
71°00'00.000" W
159.10 m
7060400
71727
YBG

Download Data

Hourly Data (January 2013)
Hourly Data Report for January 15, 2013
TIME
LST
Temp Definition
°C
Dew Point Definition
°C
Rel Hum Definition
%
Precip. Amount Definition
mm

Wind Dir Definition
10's deg

Wind Spd Definition
km/h
Visibility Definition
km
Stn Press Definition
kPa
Hmdx Definition


Wind Chill Definition


Weather Definition


00:00 -11.8 -15.1 76   28 17 24.1 100.58   -19 Mainly Clear
01:00 -12.3 -16.2 73   27 7 24.1 100.57   -17 Mainly Clear
02:00 -12.7 -16.7 72   27 11 24.1 100.66   -19 Mostly Cloudy
03:00 -12.1 -15.9 73   30 13 24.1 100.65   -19 Mostly Cloudy
04:00 -12.6 -15.5 79   31 15 16.1 100.64   -20 Snow Showers
05:00 -12.7 -16.7 72   30 13 12.9 100.62   -20 Snow Showers
06:00 -13.4 -16.0 81   33 15 12.9 100.63   -21 Snow Showers
07:00 -13.5 -15.6 84   33 11 12.9 100.65   -20 Snow Showers
08:00 -13.5 -16.1 81   31 6 8.0 100.73   -18 Snow Showers
09:00 -13.2 -15.7 81   34 9 12.9 100.73   -19 Snow Showers
10:00 -12.6 -16.0 76     0 12.9 100.70     Mainly Clear
11:00 -12.3 -16.2 73   8 13 40.2 100.61   -19 Mainly Clear
12:00 -11.1 -14.7 75   9 15 40.2 100.41   -18 Mostly Cloudy
13:00 -9.8 -13.0 77   7 11 40.2 100.35   -15 Mainly Clear
14:00 -9.2 -14.6 65   10 7 40.2 100.35   -13 Mainly Clear
15:00 -9.4 -14.9 64   13 7 40.2 100.34   -13 Mainly Clear
16:00 -10.2 -12.7 82   14 7 40.2 100.28   -14 Mostly Cloudy
17:00 -10.3 -12.4 85   9 6 40.2 100.22   -14 Mostly Cloudy
18:00 -10.6 -12.7 85   11 9 40.2 100.18   -16 Mostly Cloudy
19:00 -10.4 -12.9 82   11 6 40.2 100.17   -14 Mostly Cloudy
20:00 -10.7 -12.4 87   14 4 32.2 100.09   -13 Mostly Cloudy
21:00 -9.4 -11.3 86   24 7 40.2 100.03   -13 Mostly Cloudy
22:00 -6.2 -10.9 69   25 17 40.2 100.01   -12 Snow Showers
23:00 -5.6 -10.9 66   27 20 24.1 100.00   -12 Snow Showers

Notes on Data Quality.

Legend

  • E = Estimated
  • M = Missing
  • NA = Not Available*
  • [empty] = Indicates an unobserved value
Date modified: